Simultaneous Nadir Overpasses (SNOs) Predictions

Prediction of SNOs between LANDSAT-8 and NOAA-19 Satellite Orbit:

Table of predicted SNOs for the next 14.0 days since TLE Epoch: 12/19/2014
Index Date (LANDSAT-8) Time (LANDSAT-8) Lat,Lon (LANDSAT-8) SZA (LANDSAT-8 ) Date (NOAA-19) Time (NOAA-19) Lat,Lon (NOAA-19) SZA (NOAA-19 ) Distance(km) Time Diff (sec)
1 12/20/2014 01:36:24 -72.56, -23.84 84.12 12/20/2014 01:36:14 -72.56, -23.87 84.12 1.19 10
2 12/20/2014 02:25:55 72.26, 143.25 95.58 12/20/2014 02:27:06 72.26, 144.01 95.59 25.55 71
3 12/22/2014 06:20:41 -72.58, -94.87 84.08 12/22/2014 06:19:50 -72.58, -94.78 84.08 2.85 51
4 12/22/2014 07:10:08 72.49, 72.61 95.83 12/22/2014 07:10:47 72.52, 72.61 95.86 3.25 39
5 12/24/2014 11:04:46 -73.21,-164.71 83.47 12/24/2014 11:03:39 -73.26,-167.15 83.42 78.59 67
6 12/24/2014 11:54:24 72.54, 1.63 95.85 12/24/2014 11:54:23 72.54, 1.69 95.86 2.25 1
7 12/24/2014 12:44:06 -71.78, 167.91 84.91 12/24/2014 12:45:12 -71.76, 170.49 84.93 89.94 66
8 12/26/2014 16:38:39 72.62, -69.30 95.87 12/26/2014 16:38:00 72.63, -69.35 95.88 1.96 39
9 12/26/2014 17:28:09 -72.50, 98.12 84.25 12/26/2014 17:29:02 -72.52, 98.11 84.24 1.60 53
10 12/28/2014 21:22:52 72.78,-140.06 95.93 12/28/2014 21:21:40 72.87,-140.75 96.03 24.99 72
11 12/28/2014 22:12:24 -72.56, 27.15 84.30 12/28/2014 22:12:37 -72.54, 27.21 84.32 2.83 13
12 12/31/2014 02:56:38 -72.64, -43.76 84.35 12/31/2014 02:56:13 -72.62, -43.84 84.37 3.32 25
13 12/31/2014 03:46:06 72.49, 123.61 95.50 12/31/2014 03:47:10 72.48, 123.71 95.49 3.47 64
14 01/02/2015 07:40:53 -72.65,-114.81 84.52 01/02/2015 07:39:48 -72.68,-114.81 84.49 3.32 65
15 01/02/2015 08:30:20 72.55, 52.65 95.38 01/02/2015 08:30:46 72.56, 52.68 95.40 1.92 26




NCC Satellite Simultaneous Nadir Overpasses (SNOs) Prediction Service
